www.pogodaiklimat.ru

Погода и климат >> Архив погоды >> Россия >> Калмыкия >> Кетченеры


ПОГОДА в Кетченерах

  • Прогноз погоды в Кетченерах
  • Монитор погоды в Кетченерах
  • Климат города

АРХИВ ПОГОДЫ в Кетченерах

Время (UTC), дата Ветер
(напр.,м/с)
 
Видим.   Явления Облачность Т
(С)
Тd
(С)
f
(%)
Тe
(С)
Тes
(С)
Комфортность P
(гПа)
Po
(гПа)
Тmin
(С)
Tmax
(С)
R
(мм)
R24
(мм)
S
(см)
09 17.08 В 5-11
{12}
20 км пыльный позёмок 4/3 1500 м
[Cu hum Ac trans Ci fib]
+33.8 +0.4 12 +30 +36 жарко 1015.8 1009.2
15 17.08 В 4
{12}
20 км 6/0
[Ac trans Ci fib]
+32.1 +1.4 14 +29 +29 жарко 1015.2 1008.7 +34.3
21 17.08 штиль 0 20 км ясно +18.5 +2.5 34 +19 +19 1017.8 1011.0
03 18.08 ЮЗ 1 20 км 3/0
[Ac trans Ci fib]
+18.9 +3.8 37 +20 +21 1018.3 1011.5 +14.5
09 18.08 В 5
{13}
20 км пыльный позёмок 5/3 1500 м
[Cu hum Ac trans Ci fib]
+33.6 -0.6 11 +30 +35 жарко 1017.4 1010.8
15 18.08 В 3
{11}
20 км 8/0
[Ac As Ci fib]
+32.7 -3.6 9 +29 +29 жарко 1016.4 1009.8 +35.1
21 18.08 С 2 20 км ясно +23.8 +2.5 25 +23 +23 комфорт 1018.7 1011.9
03 19.08 штиль 0 20 км 1/0
[Ac trans Ci fib]
+19.7 +7.6 45 +20 +21 1019.2 1012.4 +18.9
09 19.08 В 3 20 км 3/0
[Ci fib]
+33.3 +0.8 13 +30 +42 жарко 1018.7 1012.1
15 19.08 В 2 20 км 5/0
[Ac trans Ci fib]
+32.8 -2.5 10 +29 +29 жарко 1017.4 1010.8 +35.3
21 19.08 С 1 20 км ясно +23.5 +3.3 27 +23 +23 комфорт 1019.3 1012.5
03 20.08 СЗ 1 20 км 5/0
[Ac trans Ci fib]
+15.8 +4.5 47 +17 +17 1019.9 1013.0 +14.9
09 20.08 ЮВ 7-13
{14}
20 км пыльный позёмок 6/3 600 м
[Sc Ac trans Ci fib]
+31.5 +2.5 16 +29 +31 жарко 1019.0 1012.5
15 20.08 В 4
{11}
20 км пыльный позёмок 10/10 600 м
[Cb calv]
+29.2 +3.7 20 +27 +27 жарко 1017.7 1011.1 +32.9
21 20.08 В 2 20 км 10/10 600 м
[Cb calv]
+24.8 +7.1 32 +25 +25 комфорт 1018.7 1012.0
03 21.08 ЮВ 1 20 км 10/10 600 м
[Cb calv]
+22.7 +5.7 33 +23 +23 комфорт 1018.2 1011.4 +22.7
09 21.08 В 4-11
{11}
20 км 6/0
[Ac trans Ci fib]
+32.1 -1.4 12 +29 +36 жарко 1016.0 1009.5
15 21.08 В 5
{14}
20 км пыльный позёмок ясно +30.0 +1.1 16 +27 +28 жарко 1013.9 1007.3 +32.7
21 21.08 штиль 0 20 км ясно +18.4 +2.6 35 +18 +18 1014.1 1007.2
03 22.08 В 2 20 км ясно +18.5 +4.4 39 +19 +20 1012.9 1006.1 +16.4
09 22.08 В 6-12
{14}
20 км пыльный позёмок ясно +34.8 -0.4 11 +31 +37 жарко 1010.2 1003.7
15 22.08 ЮВ 7-14
{16}
20 км пыльный позёмок 3/0
[Ac trans Ci fib]
+33.8 -0.4 11 +30 +30 жарко 1009.3 1002.8 +36.4
21 22.08 В 1 20 км 6/3 600 м
[Sc Ac trans]
+23.3 +3.7 28 +23 +23 комфорт 1010.9 1004.2
03 23.08 В 2 20 км 6/0
[Ac trans Ci fib]
+19.0 +4.7 39 +20 +20 1010.6 1003.8 +17.7
09 23.08 В 14-18
{18}
20 км пыльный позёмок 6/0
[Ac trans Ci fib]
+34.7 +4.1 15 +32 +32 жарко 1009.5 1003.1
15 23.08 З 10 10 км слабый ливневой дождь, в посл. час гроза 10/10 600 м
[Cb calv]
+21.3 +17.8 80 +25 +25 комфорт 1011.6 1005.0 +36.4 0.0
21 23.08 ЮЗ 2 4000 м дымка ясно +19.0 +17.8 93 +21 +21 комфорт 1015.0 1008.2
03 24.08 З 2 4000 м дымка 10/10 600 м
[Cb calv]
+18.4 +17.3 93 +20 +20 1017.5 1010.6 +17.3 5

 

Местоположение метеостанции Кетченеры (Калмыкия, Россия): широта 47.32 долгота 44.57 высота над уровнем моря 58 м.

В архиве по умолчанию представлена погода в Кетченерах за последнюю неделю. Архивные данные за месяц целиком и за предыдущие месяцы, начиная с января 2011 года, Вы можете получить, выбрав интересующий диапазон дат из раскрывающегося списка и нажав кнопку "Ввод!".

Внимание! Время в таблицах - всемирное. Для получения местного времени необходимо прибавить поправку, которая в Кетченерах равна 3 ч.

Смотрите также архив погоды в соседних городах и на ближайших метеорологических станциях:

Погода в Малых Дербетах (Калмыкия, Россия) (69 км)
Погода в Элисте (Калмыкия, Россия) (107 км)
Погода в Ремонтном (Ростовская область, Россия) (108 км)
Погода в Котельниково (Волгоградская область, Россия) (112 км)
Погода в Юсте (Калмыкия, Россия) (134 км)
Погода в Яшкуле (Калмыкия, Россия) (140 км)
Погода в Черный Яр (Астраханская область, Россия) (143 км)
Погода в Волгограде город (Волгоградская область, Россия) (150 км)
Погода в Утте (Калмыкия, Россия) (153 км)
Погода в Нижнем Чире (Волгоградская область, Россия) (156 км)

Пояснения к столбцам:

Ветер - указаны скорость ветра в м/с - средняя за 10 мин, порывы в срок и между сроками (в фигурных скобках) и направление, откуда дует ветер: С - северный, СВ - северо-восточный, В - восточный, ЮВ - юго-восточный, Ю - южный, ЮЗ - юго-западный, З - западный, СЗ - северо-западный.
Видимость - горизонтальная дальность видимости в метрах или километрах. При видимости от 1 до 10 км при отсутствии осадков обычно наблюдается дымка, при ухудшении видимости до 1 км и менее - туман. В сухую погоду видимость может ухудшаться дымом, пылью или мглою.
Явления - указаны атмосферные явления, наблюдавшиеся в срок или в последний час перед сроком; фигурными скобками обозначены явления, наблюдавшиеся между сроками (за 1-3 часа до срока); квадратными скобками обозначены град или гололедные отложения с указанием их диаметра в мм.
Облачность - указаны через наклонную черту общая и нижняя облачность в баллах и высота нижней границы облаков в метрах; квадратными скобками обозначены формы облаков: Ci - перистые, Cs - перисто-слоистые, Cc - перисто-кучевые, Ac - высококучевые, As - высокослоистые, Sc - слоисто-кучевые, Ns - слоисто-дождевые, Cu - кучевые, Cb - кучево-дождевые. Подробнее классификацию облаков см. в Атласе облаков (PDF).
T - Температура воздуха - температура, измеренная на высоте 2 м над землей.
Td - Температура точки росы - температура, при понижении до которой содержащийся в воздухе водяной пар достигнет насыщения.
f - Относительная влажность воздуха - влажноcть воздуха, измеренная на высоте 2 м над землей.
Te - Эффективная температура - температура, которую ощущает одетый по сезону человек в тени. Характеристика душности погоды. При расчете учитывается влияние влажности воздуха и скорости ветра на теплоощущения человека.
Tes - Эффективная температура на солнце - температура, которую ощущает человек, с поправкой на солнечный нагрев. Характеристика знойности погоды. Зависит от высоты солнца над горизонтом, облачности и скорости ветра. Ночью, в пасмурную погоду, а также при ветре 12 м/с и более поправка равна нулю.
P - Атмосферное давление - приведенное к уровню моря атмосферное давление.
Po - Атмосферное давление - измеренное на уровне метеостанции атмосферное давление.
Tmin - Минимальная температура - минимум температуры воздуха на высоте 2 м над землей.
Tmax - Максимальная температура - максимум температуры воздуха на высоте 2 м над землей.
R - Количество осадков - Количество выпавших осадков за период времени, мм. При наведении курсора мыши на число - период времени, за который выпало указанное количество осадков.
R24 - Количество осадков - Количество выпавших осадков за 24 часа, мм.
S - Снежный покров - Высота снежного покрова, см. При наведении курсора мыши на число - состояние снежного покрова и степень покрытия местности в баллах.